Port Heiden, AK

7:13 AM AKDT on May 28, 2017 (GMT -0800)
Port Heiden

Weather History for PAPH - January, 2012

Change the Weather History Date:

Thursday, January 12, 2012

  Actual Average Record
Temperature  
Mean Temperature 8 °F -  
Max Temperature 10 °F 28 °F 46 °F (2013)
Min Temperature 6 °F 19 °F -11 °F (2008)
Degree Days  
Heating Degree Days 57    
Moisture  
Dew Point 0 °F    
Average Humidity 72    
Maximum Humidity 85    
Minimum Humidity 61    
Precipitation  
Precipitation 0.00 in - - ()
Sea Level Pressure  
Sea Level Pressure 30.33 in    
Wind  
Wind Speed 28 mph (NW)    
Max Wind Speed 33 mph    
Max Gust Speed 41 mph    
Visibility 2 miles    
Events      
Averages and records for this station are not official NWS values.
T = Trace of Precipitation, MM = Missing Value Source: NWS Daily Summary

Daily Weather History Graph

Daily Weather History Graph

Search for Another Location

Airport or City:

Trip Planner

Search our weather history database for the weather conditions in past years. The results will help you decide how hot, cold, wet, or windy it might be!

Date:

Astronomy

Jan. 12, 2012 Rise Set
Actual Time 10:04 AM AKST 5:21 PM AKST
Civil Twilight 9:18 AM AKST 6:08 PM AKST
Nautical Twilight 8:28 AM AKST 6:57 PM AKST
Astronomical Twilight 7:42 AM AKST 7:43 PM AKST
Moon 10:43 PM AKST (1/12) 10:58 AM AKST (1/12)
Length of Visible Light 8h 49m
Length of Day
7h 16m
Waning Gibbous, 86% of the Moon is Illuminated
Jan 12
Waning Gibbous
Jan 16
Last Quarter
Jan 22
New
Jan 30
First Quarter
Feb 7
Full

Hourly Weather History & Observations

Time (AKST) Temp. Windchill Dew Point Humidity Pressure Visibility Wind Dir Wind Speed Gust Speed Precip Events Conditions
12:16 AM 8.6 °F -13.1 °F 3.2 °F 79% 30.18 in 1.0 mi NW 26.5 mph 33.4 mph N/A   Overcast
12:36 AM 8.6 °F -13.4 °F 1.4 °F 73% 30.19 in 1.0 mi NW 27.6 mph 31.1 mph N/A   Overcast
12:56 AM 8.6 °F -13.8 °F 1.4 °F 73% 30.20 in 0.5 mi NW 28.8 mph 34.5 mph N/A   Overcast
1:16 AM 6.8 °F -14.3 °F 1.4 °F 79% 30.20 in 0.5 mi NW 23.0 mph 35.7 mph N/A   Overcast
1:36 AM 6.8 °F -15.5 °F 1.4 °F 79% 30.21 in 1.0 mi NW 26.5 mph 38.0 mph N/A   Overcast
1:56 AM 6.8 °F -15.9 °F 3.2 °F 85% 30.22 in 0.8 mi NNW 27.6 mph 34.5 mph N/A   Overcast
2:16 AM 6.8 °F -16.6 °F -0.4 °F 72% 30.22 in 1.2 mi NW 29.9 mph 35.7 mph N/A   Overcast
2:36 AM 6.8 °F -15.9 °F -2.2 °F 67% 30.22 in 1.2 mi NW 27.6 mph - N/A   Overcast
2:56 AM 6.8 °F -16.9 °F -0.4 °F 72% 30.23 in 1.0 mi NW 31.1 mph 36.8 mph N/A   Overcast
3:16 AM 6.8 °F -16.2 °F -0.4 °F 72% 30.24 in 1.2 mi NW 28.8 mph - N/A   Overcast
3:36 AM 6.8 °F -17.3 °F 1.4 °F 79% 30.24 in 0.8 mi NW 32.2 mph 36.8 mph N/A   Overcast
3:56 AM 6.8 °F -15.5 °F -0.4 °F 72% 30.24 in 1.2 mi NW 26.5 mph 35.7 mph N/A   Overcast
4:16 AM 6.8 °F -16.2 °F -0.4 °F 72% 30.25 in 0.5 mi NW 28.8 mph 34.5 mph N/A   Overcast
4:36 AM 6.8 °F -14.7 °F 1.4 °F 79% 30.26 in 0.5 mi NW 24.2 mph 31.1 mph N/A   Overcast
4:56 AM 6.8 °F -15.9 °F -2.2 °F 67% 30.26 in 0.5 mi NW 27.6 mph 35.7 mph N/A   Overcast
5:16 AM 6.8 °F -16.2 °F 1.4 °F 79% 30.26 in 0.5 mi NW 28.8 mph 35.7 mph N/A   Overcast
5:36 AM 6.8 °F -16.6 °F -2.2 °F 67% 30.26 in 1.0 mi NW 29.9 mph 33.4 mph N/A   Overcast
5:56 AM 6.8 °F -16.6 °F -0.4 °F 72% 30.27 in 1.2 mi NW 29.9 mph 35.7 mph N/A   Overcast
6:16 AM 6.8 °F -16.6 °F -0.4 °F 72% 30.27 in 0.8 mi NNW 29.9 mph 34.5 mph N/A   Overcast
6:36 AM 6.8 °F -15.9 °F -2.2 °F 67% 30.28 in 1.8 mi NW 27.6 mph 32.2 mph N/A   Overcast
6:56 AM 6.8 °F -16.2 °F -0.4 °F 72% 30.28 in 1.2 mi NW 28.8 mph 38.0 mph N/A   Overcast
7:16 AM 6.8 °F -16.6 °F 1.4 °F 79% 30.29 in 0.8 mi NW 29.9 mph 36.8 mph N/A   Overcast
7:36 AM 6.8 °F -16.2 °F -2.2 °F 67% 30.30 in 1.2 mi NW 28.8 mph 34.5 mph N/A   Overcast
7:56 AM 6.8 °F -15.9 °F -2.2 °F 67% 30.30 in 1.8 mi NNW 27.6 mph 35.7 mph N/A   Overcast
8:16 AM 6.8 °F -15.5 °F -0.4 °F 72% 30.31 in 1.2 mi NW 26.5 mph 38.0 mph N/A   Overcast
8:36 AM 6.8 °F -16.2 °F -0.4 °F 72% 30.32 in 1.5 mi NW 28.8 mph 36.8 mph N/A   Overcast
8:56 AM 6.8 °F -16.6 °F -2.2 °F 67% 30.33 in 1.2 mi NW 29.9 mph 34.5 mph N/A   Overcast
9:16 AM 6.8 °F -15.5 °F -0.4 °F 72% 30.35 in 2.0 mi NW 26.5 mph 36.8 mph N/A   Overcast
9:36 AM 6.8 °F -13.8 °F -0.4 °F 72% 30.35 in 3.0 mi NW 21.9 mph 32.2 mph N/A   Overcast
9:56 AM 6.8 °F -15.9 °F -4.0 °F 61% 30.36 in 2.5 mi NNW 27.6 mph 33.4 mph N/A   Overcast
10:16 AM 6.8 °F -15.1 °F -0.4 °F 72% 30.36 in 1.5 mi NNW 25.3 mph 32.2 mph N/A   Overcast
10:36 AM 6.8 °F -15.5 °F -2.2 °F 67% 30.36 in 1.0 mi NNW 26.5 mph 31.1 mph N/A   Overcast
10:56 AM 6.8 °F -15.1 °F -0.4 °F 72% 30.37 in 1.8 mi NNW 25.3 mph 29.9 mph N/A   Overcast
11:16 AM 6.8 °F -15.1 °F -2.2 °F 67% 30.38 in 3.0 mi NW 25.3 mph - N/A   Overcast
11:36 AM 6.8 °F -16.9 °F -0.4 °F 72% 30.38 in 1.8 mi NW 31.1 mph 35.7 mph N/A   Overcast
11:56 AM 6.8 °F -16.6 °F 1.4 °F 79% 30.39 in 1.8 mi NW 29.9 mph 35.7 mph N/A   Overcast
12:16 PM 6.8 °F -16.9 °F -2.2 °F 67% 30.39 in 1.8 mi NW 31.1 mph 38.0 mph N/A   Mostly Cloudy
12:36 PM 6.8 °F -17.3 °F -0.4 °F 72% 30.40 in 1.5 mi NW 32.2 mph 38.0 mph N/A   Scattered Clouds
12:56 PM 6.8 °F -17.3 °F -2.2 °F 67% 30.41 in 1.5 mi NW 32.2 mph 38.0 mph N/A   Scattered Clouds
1:16 PM 6.8 °F -16.2 °F -2.2 °F 67% 30.41 in 1.8 mi NW 28.8 mph - N/A   Scattered Clouds
1:36 PM 6.8 °F -17.6 °F -0.4 °F 72% 30.41 in 1.0 mi WNW 33.4 mph 40.3 mph N/A   Mostly Cloudy
1:56 PM 6.8 °F -17.3 °F 1.4 °F 79% 30.42 in 1.5 mi WNW 32.2 mph 38.0 mph N/A   Mostly Cloudy
2:16 PM 6.8 °F -17.6 °F -0.4 °F 72% 30.42 in 1.2 mi NW 33.4 mph 41.4 mph N/A   Overcast
2:36 PM 8.6 °F -14.1 °F 1.4 °F 73% 30.43 in 1.5 mi NW 29.9 mph 35.7 mph N/A   Overcast
2:56 PM 8.6 °F -12.3 °F 1.4 °F 73% 30.42 in 3.0 mi NW 24.2 mph 33.4 mph N/A   Overcast
3:16 PM 8.6 °F -12.3 °F 3.2 °F 79% 30.44 in 3.0 mi NW 24.2 mph - N/A   Overcast
3:36 PM 8.6 °F -13.1 °F 1.4 °F 73% 30.44 in 7.0 mi NW 26.5 mph 32.2 mph N/A   Overcast
3:56 PM 8.6 °F -12.7 °F 1.4 °F 73% 30.44 in 7.0 mi NW 25.3 mph 33.4 mph N/A   Overcast
4:16 PM 10.4 °F -10.7 °F 1.4 °F 67% 30.44 in 7.0 mi NW 26.5 mph 29.9 mph N/A   Overcast
4:36 PM 10.4 °F -9.5 °F 1.4 °F 67% 30.45 in 5.0 mi NW 23.0 mph 32.2 mph N/A   Overcast
4:56 PM 10.4 °F -11.0 °F 1.4 °F 67% 30.45 in 7.0 mi NW 27.6 mph - N/A   Overcast
5:16 PM 10.4 °F -9.5 °F 1.4 °F 67% 30.46 in 10.0 mi NW 23.0 mph 31.1 mph N/A   Overcast
5:36 PM 10.4 °F -10.3 °F 3.2 °F 73% 30.47 in 5.0 mi WNW 25.3 mph 28.8 mph N/A   Overcast
5:56 PM 10.4 °F -9.1 °F 1.4 °F 67% 30.48 in 10.0 mi NW 21.9 mph - N/A   Overcast
6:16 PM 10.4 °F -9.5 °F 1.4 °F 67% 30.49 in 10.0 mi NW 23.0 mph 28.8 mph N/A   Overcast
6:36 PM 10.4 °F -9.9 °F 1.4 °F 67% 30.49 in 10.0 mi NW 24.2 mph 28.8 mph N/A   Overcast
6:56 PM 10.4 °F -9.1 °F 3.2 °F 73% 30.50 in 10.0 mi WNW 21.9 mph - N/A   Overcast
7:16 PM 10.4 °F -9.1 °F 1.4 °F 67% 30.50 in 10.0 mi WNW 21.9 mph - N/A   Overcast
7:36 PM 10.4 °F -8.6 °F 3.2 °F 73% 30.51 in 10.0 mi WNW 20.7 mph - N/A   Overcast
7:56 PM 12.2 °F -5.3 °F 3.2 °F 67% 30.51 in 10.0 mi WNW 18.4 mph - N/A   Overcast
8:16 PM 12.2 °F -3.7 °F 1.4 °F 62% 30.51 in 10.0 mi WNW 15.0 mph 21.9 mph N/A   Overcast
8:36 PM 12.2 °F -4.3 °F 3.2 °F 67% 30.52 in 10.0 mi WNW 16.1 mph - N/A   Overcast
8:56 PM 12.2 °F -4.8 °F 6.8 °F 79% 30.53 in 10.0 mi WNW 17.3 mph - N/A   Overcast
9:16 PM 12.2 °F -3.1 °F 1.4 °F 62% 30.52 in 10.0 mi WNW 13.8 mph - N/A   Overcast
9:36 PM 12.2 °F -1.8 °F 1.4 °F 62% 30.52 in 10.0 mi WNW 11.5 mph - N/A   Overcast
9:56 PM 12.2 °F -1.8 °F 1.4 °F 62% 30.51 in 10.0 mi WNW 11.5 mph - N/A   Overcast
10:16 PM 12.2 °F -1.0 °F 6.8 °F 79% 30.52 in 10.0 mi NW 10.4 mph - N/A   Overcast
10:36 PM 14.0 °F 1.2 °F 8.6 °F 79% 30.52 in 10.0 mi WNW 10.4 mph - N/A   Overcast
10:56 PM 14.0 °F 2.0 °F 6.8 °F 73% 30.53 in 10.0 mi WNW 9.2 mph - N/A   Overcast
11:16 PM 14.0 °F 1.2 °F 3.2 °F 62% 30.54 in 10.0 mi West 10.4 mph - N/A   Overcast
11:36 PM 14.0 °F 1.2 °F 3.2 °F 62% 30.54 in 10.0 mi West 10.4 mph - N/A   Overcast
11:56 PM 14.0 °F 2.9 °F 6.8 °F 73% 30.55 in 10.0 mi West 8.1 mph - N/A   Overcast